User: anonymous   Login
Location: Unspecified
(0.0000°N, 0.0000°E)
Time: 12:01:27
(UTC+00:00)
Language:

ADEOS II - Orbit

View from above orbital plane
View from above orbital plane
View from above satellite
View from above satellite

Ground track
Ground track

The orbit data is extracted from the following two-line orbital elements,

1 27597U 02056A   21015.57229780  .00000017  00000-0  24577-4 0  9999
2 27597  98.5477 324.0942 0002048  85.8169 274.3246 14.27479777942072
Epoch (UTC): 15 January 2021 13:44:06
Eccentricity: 0.0002048
inclination: 98.5477°
perigee height: 799 km
apogee height: 801 km
right ascension of ascending node: 324.0942°
argument of perigee: 85.8169°
revolutions per day: 14.27479777
mean anomaly at epoch: 274.3246°
orbit number at epoch: 94207

The dashed part of the orbit path shows where the satellite is in the earth's shadow,  

DLR